[[{"header":{"parameterUnit":"m.s-1","parameterCategory":1,"la1":30.2991,"la2":30.254,"lo1":-89.0895,"lo2":-89.0444,"dy":0.0017,"dx":0.0017,"nx":28,"ny":28,"refTime":"2024-07-26T03:00:00:Z","depth":0,"parameterNumber":2,"parameterNumberName":"U-component_of_WINDS"},"data":[0,0,0,0,0,0,0,0,0,0,0,0,0,0,0,0,0,0,0,0,0,0,0,0,0,0,0,0,0,0,0,0,0,0,0,0,0,0,0,0,0,0,0,0,0,0,0,0,0,0,0,0,0,0,0,0,0,0,-2.0867,-2.0867,0,-2.0922,-2.0923,-2.0923,-2.0849,-2.0847,-2.0844,-2.0842,-2.0901,-2.0905,-2.0909,0,0,0,0,0,0,0,0,0,0,0,0,0,-2.0699,-2.0702,-2.0866,-2.0867,-2.0868,-2.0922,-2.0923,-2.0923,-2.085,-2.0847,-2.0843,-2.084,-2.09,-2.0904,-2.0909,0,0,0,0,0,0,0,0,0,0,0,0,0,-2.0765,-2.0703,-2.0866,-2.0838,-2.0836,-2.0922,-2.0923,-2.0924,-2.0851,-2.0847,-2.0842,-2.0839,-2.0898,-2.0904,-2.091,-2.1028,0,0,-2.0929,-2.0931,0,0,0,0,0,0,0,0,-2.0761,-2.0771,-2.0841,-2.084,-2.0838,-2.0875,-2.0885,-2.0959,-2.0852,-2.0845,-2.0841,-2.0837,-2.0896,-2.0902,-2.0921,-2.1031,-2.1033,-2.0929,-2.0933,-2.0936,-2.0937,0,0,0,0,0,0,0,-2.0757,-2.0768,-2.0888,-2.0842,-2.084,-2.0823,-2.0827,-2.0899,-2.0892,-2.0845,-2.084,-2.0847,-2.0894,-2.0915,-2.0922,-2.1034,-2.0929,-2.0934,-2.0938,-2.0941,-2.1243,-2.1247,0,0,0,0,0,0,-2.0755,-2.0765,-2.0887,-2.089,-2.0789,-2.0829,-2.0834,-2.0867,-2.0891,-2.0891,-2.0851,-2.0844,-2.0907,-2.0915,-2.0924,-2.1063,-2.0935,-2.0941,-2.0945,-2.1238,-2.1244,-2.1248,0,0,0,0,0,0,-2.0752,-2.0767,-2.0884,-2.0826,-2.084,-2.0836,-2.0873,-2.087,-2.0891,-2.0895,-2.0894,-2.0874,-2.0904,-2.0915,-2.1002,-2.1064,-2.0944,-2.095,-2.1233,-2.124,-2.1246,-2.1343,0,0,0,0,0,0,-2.0747,-2.0766,-2.081,-2.0828,-2.0843,-2.0962,-2.0877,-2.0874,-2.0902,-2.0893,-2.0916,-2.0917,-2.0902,-2.0993,-2.1008,-2.107,-2.0954,-2.1228,-2.1236,-2.1244,-2.1334,-2.1352,-2.1367,0,0,0,0,0,-2.0742,-2.0836,-2.0813,-2.0828,-2.0898,-2.0966,-2.0975,-2.0955,-2.0907,-2.0952,-2.0954,-2.0916,-2.1055,-2.1003,-2.1019,-2.1084,-2.1224,-2.1234,-2.1243,-2.1327,-2.1348,-2.1367,0,0,0,0,0,0,-2.0827,-2.0838,-2.0812,-2.0915,-2.094,-2.0953,-2.1009,-2.0978,-2.1018,-2.1008,-2.0983,-2.0989,-2.1082,-2.1091,-2.1034,-2.1199,-2.1131,-2.1145,-2.1189,-2.121,-2.1226,-2.1222,-2.0959,0,0,0,0,0,-2.0858,-2.0911,-2.0918,-2.1008,-2.1021,-2.1013,-2.1042,-2.1024,-2.1049,-2.106,-2.1068,-2.1095,-2.1144,-2.1177,-2.1223,-2.1335,-2.1339,-2.1387,-2.1404,-2.1417,-2.1429,-2.1489,-2.1511,-2.128,-2.128,-2.128,0,0,-2.0923,-2.0935,-2.097,-2.1025,-2.1042,-2.1098,-2.1023,-2.1085,-2.1127,-2.1069,-2.1152,-2.1159,-2.1187,-2.1287,-2.1331,-2.1298,-2.1494,-2.143,-2.144,-2.1445,-2.1501,-2.1523,-2.1543,-2.1287,-2.1286,-2.1285,0,0,-2.1068,-2.1083,-2.1159,-2.1178,-2.1204,-2.1198,-2.1216,-2.1234,-2.1236,-2.1319,-2.1277,-2.1326,-2.1411,-2.1433,-2.1455,-2.1608,-2.1574,-2.1624,-2.171,-2.1769,-2.1787,-2.1803,-2.1858,-2.1878,-2.1636,-2.1636,-2.1636,0,-2.1146,-2.1227,-2.1203,-2.1268,-2.1294,-2.1243,-2.1321,-2.134,-2.1381,-2.14,-2.1361,-2.1467,-2.1482,-2.1586,-2.1624,-2.1643,-2.1664,-2.1621,-2.1786,-2.1802,-2.1816,-2.1868,-2.1889,-2.1642,-2.1641,-2.1641,-2.164,0,-2.1321,-2.1378,-2.1437,-2.1476,-2.1508,-2.158,-2.1566,-2.1602,-2.1581,-2.1579,-2.1664,-2.168,-2.1728,-2.1751,-2.1732,-2.1853,-2.1831,-2.179,-2.1722,-2.1845,-2.1893,-2.1913,-2.165,-2.1648,-2.1646,-2.1645,0,0,-2.1524,-2.1547,-2.1569,-2.1586,-2.1611,-2.1656,-2.1724,-2.177,-2.1801,-2.1831,-2.1888,-2.1962,-2.1923,-2.1948,-2.1931,-2.1983,-2.2103,-2.1935,-2.1935,-2.1966,-2.2237,-2.2268,-2.2291,-2.208,-2.2084,-2.2087,-2.2234,0,-2.167,-2.1788,-2.1767,-2.1882,-2.1935,-2.1887,-2.1947,-2.1969,-2.1969,-2.2015,-2.2014,-2.2067,-2.2012,-2.2027,-2.2075,-2.2078,-2.2157,-2.2067,-2.2134,-2.2137,-2.2129,-2.2317,-2.235,-2.2489,-2.2253,-2.2256,-2.2259,0,-2.1856,-2.1891,-2.2011,-2.2027,-2.2049,-2.2103,-2.2143,-2.2187,-2.2211,-2.2207,-2.2235,-2.2208,-2.2277,-2.2207,-2.2302,-2.2241,-2.2267,-2.2273,-2.2277,-2.2284,-2.2206,-2.2328,-2.2533,-2.2554,-2.2288,-2.2286,-2.2284,0,-2.1992,-2.207,-2.2151,-2.2167,-2.2188,-2.2227,-2.2238,-2.2258,-2.2286,-2.2322,-2.234,-2.2383,-2.2407,-2.2442,-2.2427,-2.2378,-2.2525,-2.2454,-2.2525,-2.2525,-2.2559,-2.2557,-2.277,-2.2575,-2.2575,-2.2574,-2.2574,0,-2.2158,-2.2233,-2.2212,-2.2263,-2.2346,-2.2322,-2.2405,-2.241,-2.2428,-2.2479,-2.244,-2.2489,-2.2467,-2.2514,-2.2503,-2.2584,-2.2595,-2.2594,-2.2591,-2.2598,-2.2598,-2.2615,-2.2606,-2.258,-2.2578,-2.2577,-2.2576,0,-2.2324,-2.2313,-2.2399,-2.2411,-2.2416,-2.2477,-2.2487,-2.2535,-2.2531,-2.2596,-2.261,-2.2604,-2.2658,-2.2647,-2.2706,-2.2699,-2.28,-2.2784,-2.2792,-2.2788,-2.2859,-2.2853,-2.3092,-2.3122,-2.2907,-2.2909,-2.291,0,-2.2431,-2.2488,-2.2505,-2.2536,-2.2549,-2.26,-2.2628,-2.2606,-2.2638,-2.2669,-2.2713,-2.2763,-2.2802,-2.289,-2.2892,-2.2937,-2.2922,-2.3003,-2.2929,-2.2934,-2.2924,-2.2921,-2.2926,-2.3018,-2.302,-2.3022,-2.3024,0,-2.2622,-2.2613,-2.2655,-2.2696,-2.2731,-2.2762,-2.279,-2.2818,-2.2798,-2.2835,-2.2889,-2.2919,-2.2979,-2.3029,-2.3071,-2.3082,-2.3051,-2.3047,-2.3065,-2.3074,-2.3076,-2.3076,-2.2832,-2.3042,-2.304,-2.3038,-2.3037,-2.3037,-2.2762,-2.281,-2.2829,-2.2878,-2.2896,-2.2922,-2.2967,-2.2969,-2.3013,-2.3059,-2.3043,-2.3105,-2.3127,-2.3179,-2.3196,-2.3244,-2.3214,-2.3241,-2.3248,-2.3255,-2.3264,-2.3068,-2.3251,-2.3251,-2.325,-2.325,-2.3249,0,-2.295,-2.296,-2.3005,-2.3044,-2.3082,-2.3047,-2.3076,-2.311,-2.3165,-2.3187,-2.3226,-2.3288,-2.3336,-2.3341,-2.3387,-2.3425,-2.3411,-2.3437,-2.3435,-2.3438,-2.3288,-2.3267,-2.3447,-2.3447,-2.3447,-2.3447,-2.3447,-2.3447,-2.3053,-2.3132,-2.3126,-2.3214,-2.3223,-2.3283,-2.3302,-2.3326,-2.3344,-2.3415,-2.3454,-2.3457,-2.3473,-2.3519,-2.3562,-2.3562,-2.3581,-2.3613,-2.3608,-2.3468,-2.3448,-2.343,-2.341,-2.3617,-2.3618,-2.3754,-2.3755,-2.3756]},{"header":{"parameterUnit":"m.s-1","parameterCategory":1,"la1":30.2991,"la2":30.254,"lo1":-89.0895,"lo2":-89.0444,"dy":0.0017,"dx":0.0017,"nx":28,"ny":28,"refTime":"2024-07-26T03:00:00:Z","depth":0,"parameterNumber":3,"parameterNumberName":"V-component_of_WINDS"},"data":[0,0,0,0,0,0,0,0,0,0,0,0,0,0,0,0,0,0,0,0,0,0,0,0,0,0,0,0,0,0,0,0,0,0,0,0,0,0,0,0,0,0,0,0,0,0,0,0,0,0,0,0,0,0,0,0,0,0,-1.6286,-1.6286,0,-1.632,-1.632,-1.6321,-1.6333,-1.6333,-1.6333,-1.6333,-1.6366,-1.6366,-1.6367,0,0,0,0,0,0,0,0,0,0,0,0,0,-1.6228,-1.6229,-1.6286,-1.6286,-1.6287,-1.632,-1.632,-1.6321,-1.6333,-1.6333,-1.6333,-1.6333,-1.6365,-1.6366,-1.6368,0,0,0,0,0,0,0,0,0,0,0,0,0,-1.6257,-1.6229,-1.6286,-1.6297,-1.6298,-1.632,-1.632,-1.6321,-1.6333,-1.6333,-1.6333,-1.6333,-1.6365,-1.6366,-1.6368,-1.638,0,0,-1.6372,-1.6373,0,0,0,0,0,0,0,0,-1.6255,-1.6259,-1.6295,-1.6296,-1.6298,-1.6322,-1.6312,-1.6341,-1.6333,-1.632,-1.6333,-1.6333,-1.6351,-1.6354,-1.636,-1.6381,-1.6383,-1.6372,-1.6373,-1.6374,-1.6374,0,0,0,0,0,0,0,-1.6253,-1.6257,-1.6299,-1.6295,-1.6297,-1.6299,-1.6303,-1.6317,-1.6336,-1.6321,-1.6322,-1.6326,-1.6352,-1.6359,-1.6361,-1.6383,-1.6372,-1.6373,-1.6374,-1.6375,-1.6414,-1.6414,0,0,0,0,0,0,-1.6249,-1.6256,-1.6298,-1.63,-1.6276,-1.63,-1.6305,-1.6315,-1.6336,-1.6339,-1.6326,-1.6327,-1.6357,-1.6359,-1.6362,-1.6377,-1.6374,-1.6375,-1.6376,-1.6414,-1.6414,-1.6414,0,0,0,0,0,0,-1.6248,-1.6253,-1.6297,-1.6278,-1.6284,-1.6302,-1.6312,-1.6315,-1.6322,-1.634,-1.6343,-1.633,-1.6357,-1.636,-1.6375,-1.6378,-1.6376,-1.6377,-1.6413,-1.6414,-1.6414,-1.6407,0,0,0,0,0,0,-1.6247,-1.6253,-1.6258,-1.6278,-1.6285,-1.631,-1.6313,-1.6316,-1.6325,-1.6326,-1.6344,-1.6347,-1.6357,-1.6373,-1.6377,-1.638,-1.6378,-1.6413,-1.6414,-1.6414,-1.6407,-1.6407,-1.6407,0,0,0,0,0,-1.6244,-1.6255,-1.6259,-1.6264,-1.6293,-1.631,-1.6314,-1.6325,-1.6325,-1.6331,-1.6341,-1.6347,-1.6377,-1.6374,-1.6379,-1.6383,-1.6413,-1.6414,-1.6414,-1.6407,-1.6407,-1.6407,0,0,0,0,0,0,-1.6234,-1.6258,-1.6262,-1.628,-1.6293,-1.6312,-1.632,-1.6325,-1.6338,-1.6338,-1.6351,-1.6355,-1.6368,-1.6377,-1.6373,-1.6395,-1.6395,-1.6397,-1.6389,-1.6389,-1.6389,-1.6386,-1.6379,0,0,0,0,0,-1.6234,-1.6248,-1.6267,-1.628,-1.6287,-1.6302,-1.631,-1.6318,-1.6332,-1.6337,-1.6349,-1.6362,-1.6374,-1.6382,-1.6394,-1.6408,-1.6412,-1.6413,-1.6413,-1.6413,-1.6414,-1.642,-1.6421,-1.6415,-1.6415,-1.6415,0,0,-1.6234,-1.6249,-1.6256,-1.6279,-1.629,-1.6302,-1.6307,-1.632,-1.6329,-1.6339,-1.6354,-1.6363,-1.6377,-1.6391,-1.6398,-1.6399,-1.6416,-1.6413,-1.6413,-1.6414,-1.6421,-1.6421,-1.6422,-1.6416,-1.6416,-1.6415,0,0,-1.624,-1.6253,-1.6265,-1.6276,-1.6293,-1.6303,-1.6305,-1.6324,-1.633,-1.6345,-1.6353,-1.6363,-1.6384,-1.6394,-1.6402,-1.641,-1.6415,-1.6413,-1.6413,-1.642,-1.642,-1.642,-1.6423,-1.6423,-1.6414,-1.6414,-1.6414,0,-1.6238,-1.6258,-1.627,-1.6283,-1.6292,-1.6302,-1.6313,-1.6323,-1.6343,-1.6348,-1.6349,-1.6375,-1.6386,-1.6402,-1.6404,-1.641,-1.6412,-1.6412,-1.6419,-1.642,-1.642,-1.6422,-1.6423,-1.6414,-1.6414,-1.6414,-1.6414,0,-1.6253,-1.6267,-1.6274,-1.6294,-1.6304,-1.6316,-1.6328,-1.6337,-1.6343,-1.6352,-1.6366,-1.6379,-1.6394,-1.6398,-1.6404,-1.6414,-1.6414,-1.6417,-1.6418,-1.642,-1.6422,-1.6423,-1.6413,-1.6414,-1.6414,-1.6414,0,0,-1.6255,-1.628,-1.6283,-1.6291,-1.631,-1.632,-1.6331,-1.6346,-1.6353,-1.6365,-1.6375,-1.6392,-1.6394,-1.6403,-1.641,-1.6416,-1.642,-1.6417,-1.6418,-1.6417,-1.6431,-1.6429,-1.6429,-1.6423,-1.6423,-1.6423,-1.6429,0,-1.6263,-1.6286,-1.6296,-1.6314,-1.6325,-1.6334,-1.6344,-1.6356,-1.6364,-1.6374,-1.6383,-1.6395,-1.6398,-1.6403,-1.6409,-1.6418,-1.6423,-1.6418,-1.6431,-1.6431,-1.6427,-1.6431,-1.6429,-1.6434,-1.643,-1.643,-1.6431,0,-1.6276,-1.6289,-1.6308,-1.6324,-1.6329,-1.6338,-1.6352,-1.6362,-1.6375,-1.638,-1.639,-1.6396,-1.6407,-1.6407,-1.6422,-1.6418,-1.6424,-1.6429,-1.643,-1.6431,-1.6431,-1.6432,-1.6436,-1.6437,-1.6432,-1.6432,-1.6432,0,-1.6275,-1.6297,-1.631,-1.6317,-1.6337,-1.6342,-1.6351,-1.6363,-1.6371,-1.6383,-1.6388,-1.64,-1.6407,-1.6416,-1.6425,-1.6424,-1.6438,-1.6439,-1.6443,-1.6442,-1.6445,-1.6445,-1.645,-1.6449,-1.6449,-1.6449,-1.6449,0,-1.6282,-1.6293,-1.631,-1.6318,-1.633,-1.6341,-1.6352,-1.6361,-1.6372,-1.6381,-1.6389,-1.6397,-1.6409,-1.6419,-1.6426,-1.6436,-1.6439,-1.6443,-1.6445,-1.6443,-1.6442,-1.6447,-1.6447,-1.6449,-1.6449,-1.6449,-1.6449,0,-1.6283,-1.6295,-1.631,-1.6327,-1.6331,-1.6339,-1.6353,-1.6361,-1.6369,-1.6381,-1.6384,-1.6397,-1.6408,-1.6418,-1.6433,-1.6438,-1.6448,-1.6451,-1.6444,-1.6445,-1.6448,-1.6447,-1.6456,-1.6457,-1.6455,-1.6455,-1.6455,0,-1.6287,-1.6296,-1.6313,-1.6321,-1.6329,-1.634,-1.6348,-1.6359,-1.6367,-1.6381,-1.6387,-1.6399,-1.6409,-1.6426,-1.6436,-1.6447,-1.645,-1.6452,-1.6451,-1.6448,-1.6449,-1.6449,-1.6449,-1.6452,-1.6452,-1.6452,-1.6452,0,-1.6293,-1.6298,-1.631,-1.6323,-1.6333,-1.6344,-1.6355,-1.636,-1.6372,-1.638,-1.6392,-1.64,-1.6415,-1.6427,-1.6439,-1.6446,-1.645,-1.6452,-1.6453,-1.6451,-1.6446,-1.6448,-1.6444,-1.6452,-1.6452,-1.6452,-1.6452,-1.6452,-1.6296,-1.6303,-1.6317,-1.6329,-1.6338,-1.6348,-1.6356,-1.6365,-1.6376,-1.6389,-1.6395,-1.6406,-1.6418,-1.6434,-1.6441,-1.645,-1.6451,-1.6453,-1.6453,-1.6453,-1.6453,-1.6445,-1.6452,-1.6452,-1.6452,-1.6452,-1.6452,0,-1.6301,-1.631,-1.6322,-1.6337,-1.6346,-1.635,-1.6362,-1.6369,-1.638,-1.6391,-1.64,-1.6413,-1.6424,-1.6435,-1.6446,-1.645,-1.6453,-1.6453,-1.6453,-1.6454,-1.6452,-1.6449,-1.6451,-1.6451,-1.6451,-1.6451,-1.6451,-1.6451,-1.6306,-1.6318,-1.6325,-1.6342,-1.635,-1.6363,-1.6369,-1.6378,-1.6386,-1.64,-1.6409,-1.6416,-1.6426,-1.6438,-1.6448,-1.645,-1.6454,-1.6453,-1.6456,-1.6454,-1.6454,-1.6454,-1.6452,-1.6454,-1.6454,-1.6458,-1.6458,-1.6458]}]]